Location: Caseificio
(44.7500°N, 11.0500°E)
Time: 15:57:54
(UTC+00:00)

Meteor 2-5 Rocket - Pass Details

Date: 26 May 2022
Orbit: 832 x 912 km, 81.2° (Epoch: 06 July)

Event Time Altitude Azimuth Distance (km) Brightness Sun altitude
Exits shadow 00:55:59 37° 190° (S) 1,348 4.2 -20.1°
Maximum altitude 00:58:27 90° 285° (WNW) 880 3.7 -19.9°
Drops below altitude 10° 01:04:10 10° 11° (N) 2,506 7.3 -19.4°
Sets 01:06:34 0° 11° (N) 3,435 8.3 -19.2°
